Flag for Russia Weather past 2 weeks in Nizhny Novgorod, Russia

Now
41 °F

Sprinkles. Overcast.


Feels Like: 35 °F
Forecast: 32 / 42 °F
Wind: 10 mph from Northwest

Location: Nizhny Novgorod/Strigino

Current Time: Oct 1, 2014 at 8:39:57 AM

Latest Report: Oct 1, 2014 at 8:00 AM


Visibility: 3 mi

Pressure: 29.74 "Hg

Humidity: 93%

Dew point: 39 °F

Location of Nizhny NovgorodLocation

Historic Weather in Nizhny Novgorod — Graph

°F

Nizhny Novgorod temperature yesterday

Maximum temperature yesterday: 52 °F (at 12:00 AM)
Minimum temperature yesterday: 45 °F (at 9:00 PM)
Average temperature yesterday: 50 °F

Past Weeks' High & Low Weather Summary

 TemperatureHumidityPressure
High70 °F (Sep 21, 3:30 PM)100% (Sep 16, 7:30 AM)30.39 "Hg (Sep 16, 7:30 AM)
Low30 °F (Sep 17, 3:00 AM)24% (Sep 23, 4:00 PM)29.50 "Hg (Sep 30, 2:00 PM)
Average49 °F74%30.02 "Hg
* Reported Sep 16 7:00 AM — Oct 1 7:30 AM, Nizhny Novgorod, Weather by CustomWeather, © 2014

Note: Actual official high and low records may vary slightly from our data, if they occured in-between our weather recording intervals... More about our weather records

Advertising

Nizhny Novgorod weather history for previous 24 hours

 ConditionsComfort  
Time TempWeatherWind HumidityBarometerVisibility
7:30 AM
Oct 1
41 °FSprinkles. Overcast.8 mph93%29.74 "Hg4 mi
7:00 AM41 °FSprinkles. Overcast.6 mph93%29.74 "Hg3 mi
6:30 AM41 °FSprinkles. Overcast.6 mph93%29.74 "Hg5 mi
6:00 AM43 °FSprinkles. Overcast.10 mph87%29.71 "Hg4 mi
5:30 AM43 °FSprinkles. Passing clouds.8 mph87%29.71 "Hg6 mi
5:00 AM43 °FLight rain. Passing clouds.8 mph87%29.71 "Hg4 mi
4:30 AM43 °FLight rain. Passing clouds.8 mph87%29.71 "Hg6 mi
4:00 AM43 °FLight rain. Passing clouds.8 mph87%29.71 "Hg6 mi
3:30 AM45 °FLight rain. Passing clouds.8 mph81%29.68 "Hg5 mi
3:00 AM45 °FPassing clouds.10 mph76%29.68 "HgN/A
2:30 AM45 °FPassing clouds.10 mph76%29.68 "HgN/A
2:00 AM45 °FPassing clouds.8 mph76%29.68 "HgN/A
1:30 AM45 °FPassing clouds.8 mph81%29.68 "HgN/A
12:30 AM43 °FPassing clouds.6 mph87%29.65 "HgN/A
12:00 AM43 °FPassing clouds.8 mph87%29.65 "HgN/A
11:30 PM
Sep 30
45 °FPassing clouds.8 mph81%29.65 "HgN/A
11:00 PM45 °FPartly cloudy.10 mph81%29.65 "HgN/A
10:30 PM45 °FPartly cloudy.10 mph81%29.65 "HgN/A
10:00 PM45 °FPassing clouds.8 mph81%29.65 "HgN/A
9:30 PM45 °FPassing clouds.8 mph81%29.65 "HgN/A
9:00 PM45 °FPassing clouds.6 mph81%29.65 "HgN/A
8:30 PM46 °FLight rain. Passing clouds.10 mph76%29.65 "HgN/A
8:00 PM46 °FPartly cloudy.8 mph76%29.65 "HgN/A
7:30 PM46 °FBroken clouds.8 mph82%29.62 "HgN/A
7:00 PM46 °FBroken clouds.8 mph82%29.62 "HgN/A
6:30 PM50 °FBroken clouds.10 mph71%29.59 "HgN/A
6:00 PM50 °FBroken clouds.10 mph71%29.59 "HgN/A
5:30 PM52 °FPartly sunny.13 mph67%29.59 "HgN/A
5:00 PM52 °FBroken clouds.8 mph67%29.59 "HgN/A
4:30 PM52 °FBroken clouds.6 mph72%29.59 "HgN/A
4:00 PM52 °FBroken clouds.13 mph72%29.59 "HgN/A
3:30 PM50 °FPartly sunny.13 mph76%29.56 "HgN/A
3:00 PM50 °FLight rain. Mostly cloudy.6 mph82%29.56 "Hg6 mi
2:30 PM50 °FLight rain. Mostly cloudy.6 mph88%29.53 "HgN/A
2:00 PM52 °FLight rain. Mostly cloudy.6 mph94%29.50 "Hg4 mi
1:30 PM52 °FLight rain. Mostly cloudy.8 mph88%29.53 "Hg3 mi
1:00 PM52 °FLight rain. Mostly cloudy.8 mph88%29.53 "Hg6 mi
12:30 PM52 °FMostly cloudy.8 mph88%29.56 "HgN/A
12:00 PM52 °FLight rain. Mostly cloudy.8 mph88%29.59 "Hg6 mi
11:30 AM52 °FMostly cloudy.8 mph88%29.59 "Hg6 mi
11:00 AM52 °FMostly cloudy.8 mph88%29.62 "Hg6 mi
10:30 AM52 °FLight rain. More clouds than sun.6 mph82%29.65 "Hg5 mi
10:00 AM52 °FLight rain. More clouds than sun.6 mph82%29.65 "Hg6 mi
9:30 AM52 °FMore clouds than sun.6 mph82%29.68 "Hg6 mi
9:00 AM50 °FMore clouds than sun.3 mph88%29.71 "Hg5 mi
8:30 AM50 °FMore clouds than sun.6 mph88%29.71 "Hg5 mi
8:00 AM50 °FMostly cloudy.6 mph88%29.71 "Hg6 mi
Weather by CustomWeather, © 2014

See weather overviewHow to use our weather pages